Change the Weather History Date:

Wednesday, October 5, 2011

  Actual Average Record
Temperature  
Mean Temperature 58 °F -  
Max Temperature 67 °F 56 °F 68 °F (2011)
Min Temperature 48 °F 45 °F 33 °F (1999)
Degree Days  
Heating Degree Days 6    
Growing Degree Days 8 (Base 50)    
Moisture  
Dew Point 54 °F    
Average Humidity 82    
Maximum Humidity 100    
Minimum Humidity 65    
Precipitation  
Precipitation 0.12 in 0.09 in - ()
Sea Level Pressure  
Sea Level Pressure 29.75 in    
Wind  
Wind Speed 21 mph ()    
Max Wind Speed 29 mph    
Max Gust Speed 43 mph    
Visibility 6.3 miles    
Events Rain    
Averages and records for this station are not official NWS values.
T = Trace of Precipitation, MM = Missing Value Source: Averaged Metar Reports

Daily Weather History Graph

Daily Weather History Graph

Search for Another Location

Airport or City:

Trip Planner

Search our weather history database for the weather conditions in past years. The results will help you decide how hot, cold, wet, or windy it might be!

Date:

Astronomy

Oct. 05, 2011 Rise Set
Actual Time 7:33 AM IST 6:53 PM IST
Civil Twilight 6:58 AM IST 7:27 PM IST
Nautical Twilight 6:17 AM IST 8:08 PM IST
Astronomical Twilight 5:36 AM IST 8:49 PM IST
Moon 4:12 PM IST (10/5) 12:11 AM IST (10/5)
Length of Visible Light 12h 29m
Length of Day
11h 20m
Waxing Gibbous, 64% of the Moon is Illuminated
Oct 5
Waxing Gibbous
Oct 12
Full
Oct 20
Last Quarter
Oct 26
New
Nov 2
First Quarter

Hourly Weather History & Observations

Time (IST) Temp. Dew Point Humidity Pressure Visibility Wind Dir Wind Speed Gust Speed Precip Events Conditions
12:00 AM 59.0 °F 55.4 °F 88% 29.89 in 6.2 mi SW 20.7 mph - N/A Rain Light Rain
12:30 AM 59.0 °F 55.4 °F 88% 29.89 in 6.2 mi SW 20.7 mph - N/A   Partly Cloudy
1:00 AM 60 °F 55 °F 78% 29.88 in 22 mi SW 22.4 mph - - Rain Light Rain
1:00 AM 59.0 °F 55.4 °F 88% 29.89 in 6.2 mi SW 21.9 mph - N/A   Scattered Clouds
1:30 AM 59.0 °F 55.4 °F 88% 29.86 in 6.2 mi SW 21.9 mph - N/A Rain Light Rain
2:00 AM 59.0 °F 55.4 °F 88% 29.86 in 6.2 mi SW 19.6 mph - N/A Rain Light Rain
2:30 AM 59.0 °F 55.4 °F 88% 29.86 in 6.2 mi SW 21.9 mph - N/A Rain Light Rain
3:00 AM 59.0 °F 55.4 °F 88% 29.86 in 6.2 mi WSW 19.6 mph - N/A Rain Light Rain
3:30 AM 59.0 °F 55.4 °F 88% 29.83 in 6.2 mi SW 18.4 mph - N/A   Mostly Cloudy
4:00 AM 59.0 °F 55.4 °F 88% 29.83 in 6.2 mi SW 21.9 mph - N/A   Mostly Cloudy
4:30 AM 59.0 °F 53.6 °F 82% 29.83 in 6.2 mi SW 21.9 mph - N/A Rain Light Rain
5:00 AM 60.8 °F 53.6 °F 77% 29.83 in 6.2 mi SW 21.9 mph 33.4 mph N/A   Mostly Cloudy
5:30 AM 60.8 °F 53.6 °F 77% 29.83 in 6.2 mi SW 19.6 mph - N/A Rain Light Rain
6:00 AM 60.8 °F 53.6 °F 77% 29.80 in 6.2 mi SW 20.7 mph 32.2 mph N/A   Mostly Cloudy
6:30 AM 60.8 °F 53.6 °F 77% 29.80 in 6.2 mi SW 24.2 mph - N/A   Mostly Cloudy
7:00 AM 60 °F 54 °F 75% 29.80 in 25 mi SW 22.4 mph - -   Partly Cloudy
7:00 AM 60.8 °F 53.6 °F 77% 29.80 in 6.2 mi SW 21.9 mph - N/A   Mostly Cloudy
7:30 AM 60.8 °F 53.6 °F 77% 29.80 in 6.2 mi SW 24.2 mph 36.8 mph N/A   Mostly Cloudy
8:00 AM 60.8 °F 53.6 °F 77% 29.77 in 6.2 mi SW 21.9 mph - N/A   Mostly Cloudy
8:30 AM 60.8 °F 53.6 °F 77% 29.77 in 6.2 mi SW 24.2 mph - N/A   Mostly Cloudy
9:00 AM 60.8 °F 55.4 °F 82% 29.77 in 6.2 mi SW 23.0 mph - N/A   Mostly Cloudy
9:30 AM 60.8 °F 55.4 °F 82% 29.77 in 6.2 mi SW 25.3 mph 36.8 mph N/A   Mostly Cloudy
10:00 AM 62.6 °F 55.4 °F 77% 29.77 in 6.2 mi SW 25.3 mph 36.8 mph N/A   Mostly Cloudy
10:30 AM 62.6 °F 55.4 °F 77% 29.74 in 6.2 mi SW 27.6 mph - N/A   Mostly Cloudy
11:00 AM 62.6 °F 55.4 °F 77% 29.74 in 6.2 mi SW 26.5 mph - N/A   Mostly Cloudy
11:30 AM 64.4 °F 55.4 °F 73% 29.74 in 6.2 mi SW 27.6 mph 39.1 mph N/A   Mostly Cloudy
12:00 PM 64.4 °F 55.4 °F 73% 29.74 in 6.2 mi SW 28.8 mph 42.6 mph N/A   Mostly Cloudy
12:30 PM 66.2 °F 55.4 °F 68% 29.71 in 6.2 mi SW 28.8 mph 40.3 mph N/A   Mostly Cloudy
1:00 PM 66 °F 57 °F 65% 29.73 in 31 mi SW 29.1 mph - -   Mostly Cloudy
1:00 PM 66.2 °F 57.2 °F 73% 29.71 in 6.2 mi SW 27.6 mph 39.1 mph N/A   Mostly Cloudy
1:30 PM 68.0 °F 57.2 °F 68% 29.71 in 6.2 mi SW 25.3 mph 39.1 mph N/A   Mostly Cloudy
2:00 PM 66.2 °F 57.2 °F 73% 29.68 in 6.2 mi SW 28.8 mph 42.6 mph N/A   Mostly Cloudy
2:30 PM 64.4 °F 59.0 °F 83% 29.68 in 3.1 mi SW 26.5 mph 39.1 mph N/A Rain Light Rain
3:00 PM 60.8 °F 60.8 °F 100% 29.68 in 2.5 mi WSW 20.7 mph - N/A Rain Light Rain
3:30 PM 62.6 °F 59.0 °F 88% 29.68 in 5.0 mi WSW 23.0 mph 39.1 mph N/A Rain Light Rain
4:00 PM 60.8 °F 59.0 °F 94% 29.65 in 6.2 mi SW 24.2 mph 36.8 mph N/A   Mostly Cloudy
4:30 PM 62.6 °F 59.0 °F 88% 29.65 in 6.2 mi WSW 24.2 mph - N/A   Mostly Cloudy
5:00 PM 60.8 °F 59.0 °F 94% 29.65 in 6.2 mi West 26.5 mph 39.1 mph N/A Rain Light Rain
5:30 PM 57.2 °F 53.6 °F 88% 29.65 in 6.2 mi West 27.6 mph 40.3 mph N/A   Mostly Cloudy
6:00 PM 57.2 °F 51.8 °F 82% 29.65 in 6.2 mi West 23.0 mph - N/A   Scattered Clouds
6:30 PM 57.2 °F 50.0 °F 77% 29.65 in 6.2 mi West 21.9 mph - N/A   Partly Cloudy
7:00 PM 56 °F 50 °F 75% 29.69 in 19 mi West 22.4 mph - -   Partly Cloudy
7:00 PM 55.4 °F 50.0 °F 82% 29.68 in 6.2 mi West 21.9 mph 33.4 mph N/A   Scattered Clouds
7:30 PM 55.4 °F 50.0 °F 82% 29.68 in 6.2 mi West 25.3 mph - N/A   Scattered Clouds
8:00 PM 53.6 °F 48.2 °F 82% 29.68 in 6.2 mi West 25.3 mph - N/A   Scattered Clouds
8:30 PM 51.8 °F 48.2 °F 88% 29.71 in 6.2 mi West 25.3 mph 36.8 mph N/A   Scattered Clouds
9:00 PM 51.8 °F 48.2 °F 88% 29.71 in 6.2 mi West 21.9 mph - N/A   Mostly Cloudy
9:30 PM 51.8 °F 46.4 °F 82% 29.71 in 6.2 mi West 17.3 mph - N/A   Mostly Cloudy
10:00 PM 50.0 °F 46.4 °F 87% 29.71 in 6.2 mi West 17.3 mph - N/A   Mostly Cloudy
10:30 PM 50.0 °F 46.4 °F 87% 29.74 in 6.2 mi West 20.7 mph - N/A   Mostly Cloudy
11:00 PM 50.0 °F 44.6 °F 82% 29.74 in 6.2 mi West 19.6 mph - N/A   Mostly Cloudy
11:30 PM 48.2 °F 44.6 °F 87% 29.74 in 6.2 mi West 23.0 mph - N/A   Scattered Clouds